Lapse_Rate
1.2 0.9 0.9 0.6 -0.2 -0.4 -0.2 0.0 -0.4 -0.6 -0.7 -0.3 -0.1 0.1 0.3 0.9 1.2 1.7 2.4 2.5 2.9 2.9 3.1 3.2 2.9 3.1 3.2 3.3 3.3 2.9 3.0 3.3
0.7 -0.3 -0.6 -0.8 -0.1 -0.2 -0.4 0.1 -0.2 0.3 0.3 0.8 1.1 1.2 1.2 1.8 1.6 2.3 2.6 2.9 3.2 3.5 3.3 3.2 3.0 3.3 3.4 3.5 3.7 3.8 3.7 3.3
-0.6 -2.1 -2.6 -1.1 -0.1 -0.8 0.0 0.4 0.0 0.6 0.8 0.8 1.1 0.4 0.7 1.6 2.3 2.4 2.8 2.6 2.9 2.6 2.6 2.5 2.6 2.9 3.4 3.4 3.6 3.9 3.7 2.8
0.9 -1.4 -2.0 -1.5 -0.8 -0.9 -0.3 -0.4 -0.2 1.1 1.5 1.0 0.7 1.0 1.4 2.2 2.5 2.1 2.7 2.5 2.5 2.2 2.3 2.7 2.6 3.0 3.7 3.5 3.3 3.4 4.3 3.5
2.0 -0.3 -2.8 -0.5 -1.1 -0.6 -0.8 -0.5 0.8 1.4 0.3 1.8 2.0 2.3 2.5 1.9 2.5 2.2 1.4 2.2 2.0 2.3 2.2 1.7 2.2 2.1 2.0 2.8 3.5 3.7 3.7 4.7
1.8 -0.0 -0.8 -0.2 0.2 0.3 -0.6 -0.3 0.2 -0.3 1.2 1.9 2.1 1.5 0.8 0.7 0.7 0.7 0.4 0.4 1.1 1.9 1.5 0.9 1.6 2.1 2.3 2.7 2.9 3.1 4.3 4.5
2.0 1.1 -2.3 -3.5 -3.3 -3.0 -1.3 -0.0 0.3 -0.0 1.4 1.4 1.9 1.6 0.5 0.3 -0.4 -0.5 -0.3 -0.2 -0.0 0.2 0.2 -0.5 -0.9 -0.5 0.0 0.2 0.6 1.5 2.7 3.9
0.6 -0.2 -1.0 -2.7 -2.1 -1.9 -0.9 0.3 0.4 0.9 1.9 1.9 1.9 1.4 0.9 -0.1 -0.3 -0.5 -0.2 -0.3 -0.7 -1.1 -1.1 -1.3 -1.4 -1.3 -1.0 -0.7 -0.3 -0.1 0.5 1.8
0.3 0.1 -0.2 -0.8 -1.4 -1.2 0.8 1.5 1.2 1.2 1.2 0.7 0.2 -0.6 -0.4 -0.6 -0.8 -0.7 -0.8 -1.1 -1.7 -2.1 -2.3 -2.3 -2.1 -1.7 -1.8 -1.6 -1.6 -1.5 -1.4 -1.1
0.3 0.8 0.1 -0.4 -0.8 -0.4 1.8 1.5 1.2 1.1 0.3 -0.1 -0.4 -0.5 -0.3 -0.4 -1.4 -1.7 -2.1 -2.0 -1.7 -2.2 -2.4 -2.2 -2.1 -1.9 -1.7 -1.7 -1.6 -1.6 -1.7 -1.7
1.9 1.3 0.3 0.5 0.4 0.1 0.5 1.0 0.9 0.4 0.1 0.4 0.1 -0.2 -0.7 -1.3 -1.8 -1.6 -1.5 -1.6 -1.7 -1.8 -1.5 -1.3 -1.1 -1.1 -1.2 -1.2 -1.4 -1.7 -2.0 -2.2
2.0 3.2 2.0 1.3 1.0 1.0 0.5 0.6 0.6 0.6 1.0 -0.7 -0.6 -1.0 -1.3 -1.4 -1.5 -1.6 -1.1 -1.3 -1.3 -0.8 -0.7 -0.5 -0.7 -0.8 -1.1 -1.2 -1.4 -1.8 -1.8 -1.6
3.8 3.6 2.5 1.7 1.8 1.7 1.0 0.5 0.9 0.8 0.7 0.1 -0.5 -1.2 -0.9 -0.7 -1.2 -1.4 -1.0 -1.1 -1.0 -0.8 -0.8 -0.9 -0.7 -0.7 -0.6 -0.5 -0.0 -0.2 -0.0 -0.2
4.1 4.2 3.9 3.2 2.6 2.2 1.9 1.5 1.1 0.4 0.6 0.3 -0.2 -0.1 -0.3 -1.0 -1.2 -1.2 -0.9 -0.9 -0.9 -0.7 -0.3 -0.1 0.1 0.1 0.3 0.1 -0.1 -0.8 0.3 0.1
4.5 4.5 4.4 3.5 3.0 2.4 1.6 1.0 1.1 0.8 1.0 0.9 0.0 -0.5 -1.1 -1.2 -1.2 -1.1 -0.8 -0.6 -0.4 -0.3 0.3 0.8 1.2 0.9 0.7 0.1 0.3 0.4 0.2 0.0
4.8 4.7 4.9 4.1 2.8 2.4 2.2 1.3 1.1 1.3 1.0 0.3 -0.6 -0.9 -0.6 -0.8 -1.2 -1.1 -0.9 -0.4 0.0 0.5 0.7 0.8 1.2 1.3 0.8 -0.1 0.5 0.3 0.2 0.3
5.8 6.1 5.8 4.3 3.0 2.4 2.4 1.3 1.3 1.3 0.8 0.2 -0.5 -0.7 -0.9 -1.0 -0.9 -0.5 0.1 0.3 0.3 0.4 1.1 3.0 2.7 1.8 0.7 0.9 0.8 0.3 0.3 0.3
6.1 5.2 5.0 4.4 3.0 2.3 1.6 1.1 1.5 1.3 0.5 -0.2 -0.6 -0.7 -0.5 -0.5 -0.1 -0.2 -1.0 -1.3 -0.8 0.8 2.8 3.2 3.0 2.6 1.4 1.1 0.7 0.0 0.2 0.3
5.5 5.5 6.0 5.0 3.1 2.5 1.3 1.6 1.0 0.6 0.3 -0.1 -0.2 0.3 0.2 -0.6 -0.9 -1.2 -1.6 -0.6 1.4 3.2 3.2 2.7 3.0 2.4 1.7 1.6 1.2 0.6 0.5 0.1
Wind_Speed
17 16 12 12 12 12 12 11 12 12 7 5 4 4 4 7 6 8 11 12 13 11 7 7 8 4 4 4 5 3 3 3
12 10 9 8 9 12 15 14 12 10 8 8 4 6 3 3 4 9 11 11 12 12 5 5 5 5 1 1 2 3 2 2
11 9 8 11 14 15 14 15 15 12 9 6 3 4 3 2 3 5 8 10 10 7 5 3 4 3 4 4 3 2 2 3
15 12 13 8 13 16 17 17 16 13 11 7 4 5 4 3 2 2 3 6 7 7 6 4 4 3 3 2 3 4 2 1
14 11 7 14 14 11 14 15 15 13 14 11 12 9 5 3 3 3 3 3 5 6 6 6 4 3 4 3 3 2 2 2
17 17 15 12 10 13 14 16 17 15 15 12 8 6 3 3 4 6 5 5 6 6 8 6 5 4 4 4 4 4 3 2
13 6 6 5 4 5 10 15 16 16 15 13 12 12 9 7 5 5 4 4 4 5 9 7 7 6 5 4 5 6 4 3
12 13 12 10 11 10 8 11 9 10 13 12 12 13 11 10 7 5 6 3 3 5 5 6 5 6 6 5 6 6 5 3
16 16 14 12 12 12 12 13 12 9 11 10 10 10 7 6 6 5 4 4 4 5 6 5 6 7 7 6 4 4 5 4
17 13 13 13 13 14 15 14 12 12 12 11 9 9 10 9 8 6 4 5 4 6 5 6 6 7 7 6 4 5 5 4
14 15 15 13 13 11 11 14 15 12 11 11 9 9 8 8 7 7 7 6 6 7 6 6 6 6 5 6 4 5 5 4
16 15 13 12 10 12 11 12 14 13 12 8 9 8 8 7 7 7 6 7 7 7 6 6 6 6 6 6 6 5 5 4
13 15 17 16 15 13 13 10 12 11 11 11 11 10 9 8 7 8 7 8 6 7 7 7 6 6 5 5 5 4 4 5
14 13 16 17 16 14 13 12 12 10 10 11 10 10 10 11 10 10 9 9 7 7 7 7 6 5 5 6 6 5 4 6
16 14 16 16 16 15 14 12 13 13 12 12 11 10 11 11 11 10 10 8 9 8 7 6 6 6 6 6 4 4 5 5
18 19 18 18 16 14 13 12 11 11 11 10 9 9 10 11 10 9 9 8 8 8 8 7 6 5 4 5 4 4 4 4
18 18 19 18 19 17 14 13 12 12 13 12 11 10 10 10 10 9 9 8 7 6 7 7 6 4 9 11 5 4 5 4
19 22 23 21 20 19 17 15 14 12 12 11 11 10 10 9 9 9 8 7 7 7 7 7 6 6 10 12 8 3 3 2
19 17 18 18 16 15 17 17 16 14 13 12 10 10 9 9 8 8 7 6 7 6 5 6 6 4 11 10 8 4 4 3
Wind_Direction
228 217 204 189 179 177 174 175 179 170 155 158 150 160 179 169 177 188 196 202 198 195 207 215 191 192 215 208 215 198 223 252
234 226 202 190 167 175 176 172 174 166 167 170 180 194 170 169 169 190 199 201 205 200 203 205 193 203 262 200 192 238 258 208
220 217 184 185 189 184 174 179 174 176 176 180 150 136 140 125 151 166 189 197 191 183 186 186 173 168 164 170 169 182 222 188
216 205 203 174 186 181 180 178 173 173 165 137 114 93 85 111 134 136 174 169 162 155 145 136 138 137 142 162 175 185 209 139
214 201 188 198 197 175 173 168 167 170 159 160 163 166 155 147 131 130 100 122 118 113 105 98 98 85 86 81 71 78 109 95
200 199 198 195 183 185 177 170 168 163 165 161 150 126 107 106 115 113 99 74 75 101 107 112 109 101 85 77 80 72 57 54
200 170 134 135 135 145 166 172 177 166 164 154 145 143 138 132 132 116 102 84 77 76 88 88 87 89 88 82 73 68 52 64
178 171 168 158 163 158 160 159 151 153 147 140 145 141 138 133 143 130 133 117 91 94 98 94 91 89 80 77 76 68 51 65
192 185 172 168 161 156 157 152 136 134 134 131 129 127 132 128 129 135 126 123 125 111 101 95 93 92 89 83 78 73 73 65
185 173 170 166 162 162 155 148 143 144 138 132 134 132 130 135 130 128 126 121 119 116 104 99 90 80 75 74 72 66 64 51
185 180 169 166 162 150 150 150 148 146 137 135 133 135 123 126 122 126 126 121 112 106 96 88 81 80 85 86 80 58 62 38
180 177 164 151 141 150 147 144 143 144 142 127 130 124 123 127 125 122 114 104 109 107 104 101 89 78 64 67 72 59 62 50
169 164 160 156 158 157 153 143 143 145 142 137 134 129 129 116 108 106 111 114 109 114 105 94 88 77 73 73 67 57 40 28
157 161 167 164 160 156 154 155 150 143 139 134 130 129 129 125 125 123 122 118 110 102 101 94 91 90 75 60 55 49 43 42
160 163 171 167 164 160 154 153 154 147 139 137 135 142 135 130 128 125 121 119 113 101 99 109 100 89 81 70 54 58 56 54
174 172 174 169 162 159 154 148 145 141 129 126 125 121 122 123 120 119 119 116 121 129 127 114 104 98 97 100 68 75 68 66
183 171 169 173 167 160 153 148 142 137 132 135 131 128 126 125 125 130 130 132 128 117 109 117 112 105 107 88 83 89 80 64
180 179 180 174 174 162 155 143 134 134 134 134 136 136 136 139 140 134 127 123 119 119 126 128 127 126 124 111 104 92 90 103
188 180 178 175 164 158 138 139 142 141 142 143 139 143 141 136 137 133 122 131 140 142 138 129 130 136 136 139 150 147 143 87